STARLINK-32540, 61723

Orbit data source: Space-Track

STARLINK-32540, 61723 is a payload satellite owned by SpaceX/Seattle (US) in LEO that was launched on Wed, 30 Oct 2024 UTC via an FALCON 9 launch vehicle from the Air Force Eastern Test Range (AFETR). Payloads include a variety of satellites, spacecraft, and rockets equipped with specific instruments for various scientific and technological missions. These include communications satellites like Starlink; space stations such as the ISS; scientific satellites like the Hubble; Earth observation satellites from companies like Planet Labs, Umbra, and HawkEye 360; GPS; miniature CubeSats for education and research; and military/defense satellites.

Loading next visibility...
STARLINK-32540 details
Identifier
61723, 2024-196S
Orbit
LEO
Last TLE update2 days ago
Origin
Flag of USSpaceX/Seattle (US)
ManufacturerSpaceX/Seattle
MissionOperational spacecraft
Bus & MotorSTARLINK V2M, Unknown motor
Mass730 kg wet, ~700 kg dry
Launch date (UTC)
2024-10-30 (1 month ago)
Launch vehicle
FALCON 9
Launch site
Air Force Eastern Test Range (AFETR)
Object type
Payload
Rocket body
Debris
Shape & HBRUnknown
Radar Cross SectionLarge (>1 m²)

Expand to show TLE details & history

TLE from 2 days ago
0 STARLINK-32540
1 61723U 24196S   24346.43354060  .00020477  00000-0  11009-3 0  9999
2 61723  53.1408  44.1795 0002711  93.7309 266.4023 15.80252810  7668
Epoch: 2024-12-11T10:24Z
Definitive object data (Epoch: 2024-12-11T10:24:17.907Z)
Latitude-0.00006°
Longitude167.47655°
Altitude330.757 km
Speed7.711 km/s
True Right ascension02h 56m 43s
True Declination0° 00' 00"
Sunlit
Object was in full shadow at TLE epoch
Visualization TLE readout
Latitude-23.6294°
Longitude136.10748°
Altitude337.426 km
Speed7.706 km/s
Apparent Right ascension03h 50m 36s
Apparent Declination-45° 28' 36"
Sunlit
Object is in daylight
Visualization observer readout
Local Sidereal Time20:00:08
Azimuth118.566° SE
Elevation-44.974°
Doppler factor1
Orbital elements
Apogee altitude331.809 km
Perigee altitude328.172 km
Semi-major axis6,708.127 km
Eccentricity0.0002711
Inclination53.1408°
RAAN44.1795°
Arg. of periapsis93.7309°
True anomaly266.3713°
Mean anomaly266.4023°
Eccentric anomaly266.3868°
Mean motion3.9504 °/min
BSTAR0.00011009
Orbital period91.13 mins
Loading maneuver chart data...
Loading historical data...
Loading historical data...
Loading historical data...
Loading historical data...
Loading historical data...
Loading historical data...
Loading historical data...

STARLINK-32540 Visibility forecast

Observer location: undefined°, undefined

Span
Click to sort rows by Start time (UTC) header in descending order
Start Az.
Max El. time (UTC)
Max El. Az.
Max El.
End time (UTC)
End Az.
4 mins2024-12-14 05:21:23.874Z189.293° SSW2024-12-14 05:23:23.874Z131.322° SE24.584°2024-12-14 05:25:23.874Z76.091° E
|